{"data":{"norad_id":45754,"epoch":"2026-09-20T02:15:17.947872Z","epoch_age_seconds":56955,"freshness":"FRESH","line1":"1 45754U 20038AA  26263.09395773  .00025325  00000+0  10432-2 0  9998","line2":"2 45754  53.0204  42.5876 0001751 157.3457 202.7616 15.23969095346083","mean_motion":15.23969095,"eccentricity":0.0001751,"inclination_deg":53.0204,"raan_deg":42.5876,"arg_perigee_deg":157.3457,"mean_anomaly_deg":202.7616,"bstar":0.0010432,"rev_number":34608,"period_min":94.490105129068,"perigee_km":492.67949740189,"apogee_km":495.08607873167,"semimajor_km":6872.0197880668,"source":"CELESTRAK","updated_at":"2026-09-20T09:00:38.457153Z"}}